owner,sensor,date,latitude,longitude,vertical_datum,sea_water_temperature,qcFlag 
ENP,ioos.station.NOAA.NDBC:DKKF1:1,2014-11-01T00:00:00Z,25.1800,-80.4900,1.0,26.89,2 
ENP,ioos.station.NOAA.NDBC:DKKF1:1,2014-11-01T01:00:00Z,25.1800,-80.4900,1.0,26.62,2 
ENP,ioos.station.NOAA.NDBC:DKKF1:1,2014-11-01T02:00:00Z,25.1800,-80.4900,1.0,26.37,2 
ENP,ioos.station.NOAA.NDBC:DKKF1:1,2014-11-01T04:00:00Z,25.1800,-80.4900,1.0,26.15,2 
ENP,ioos.station.NOAA.NDBC:DKKF1:1,2014-11-01T05:00:00Z,25.1800,-80.4900,1.0,25.85,2 
ENP,ioos.station.NOAA.NDBC:DKKF1:1,2014-11-01T07:00:00Z,25.1800,-80.4900,1.0,25.49,2 
ENP,ioos.station.NOAA.NDBC:DKKF1:1,2014-11-01T08:00:00Z,25.1800,-80.4900,1.0,25.29,2 
ENP,ioos.station.NOAA.NDBC:DKKF1:1,2014-11-01T09:00:00Z,25.1800,-80.4900,1.0,25.0,11111222 
ENP,ioos.station.NOAA.NDBC:DKKF1:1,2014-11-01T10:00:00Z,25.1800,-80.4900,1.0,24.93,2 
ENP,ioos.station.NOAA.NDBC:DKKF1:1,2014-11-01T11:00:00Z,25.1800,-80.4900,1.0,24.82,2 
ENP,ioos.station.NOAA.NDBC:DKKF1:1,2014-11-01T12:00:00Z,25.1800,-80.4900,1.0,24.62,2 
ENP,ioos.station.NOAA.NDBC:DKKF1:1,2014-11-01T13:00:00Z,25.1800,-80.4900,1.0,24.5,2 
ENP,ioos.station.NOAA.NDBC:DKKF1:1,2014-11-01T14:00:00Z,25.1800,-80.4900,1.0,24.51,2 
ENP,ioos.station.NOAA.NDBC:DKKF1:1,2014-11-01T15:00:00Z,25.1800,-80.4900,1.0,24.59,2 
ENP,ioos.station.NOAA.NDBC:DKKF1:1,2014-11-01T16:00:00Z,25.1800,-80.4900,1.0,24.85,2 
ENP,ioos.station.NOAA.NDBC:DKKF1:1,2014-11-01T17:00:00Z,25.1800,-80.4900,1.0,24.8,11111222 
ENP,ioos.station.NOAA.NDBC:DKKF1:1,2014-11-01T18:00:00Z,25.1800,-80.4900,1.0,24.92,2 
ENP,ioos.station.NOAA.NDBC:DKKF1:1,2014-11-01T19:00:00Z,25.1800,-80.4900,1.0,25.1,2 
ENP,ioos.station.NOAA.NDBC:DKKF1:1,2014-11-01T20:00:00Z,25.1800,-80.4900,1.0,25.07,2 
ENP,ioos.station.NOAA.NDBC:DKKF1:1,2014-11-01T22:00:00Z,25.1800,-80.4900,1.0,24.82,2 
ENP,ioos.station.NOAA.NDBC:DKKF1:1,2014-11-01T23:00:00Z,25.1800,-80.4900,1.0,24.51,2 
ENP,ioos.station.NOAA.NDBC:DKKF1:1,2014-11-02T00:00:00Z,25.1800,-80.4900,1.0,24.16,2 
ENP,ioos.station.NOAA.NDBC:DKKF1:1,2014-11-02T02:00:00Z,25.1800,-80.4900,1.0,23.55,2 
ENP,ioos.station.NOAA.NDBC:DKKF1:1,2014-11-02T03:00:00Z,25.1800,-80.4900,1.0,22.96,2 
ENP,ioos.station.NOAA.NDBC:DKKF1:1,2014-11-02T05:00:00Z,25.1800,-80.4900,1.0,22.88,2 
ENP,ioos.station.NOAA.NDBC:DKKF1:1,2014-11-02T06:00:00Z,25.1800,-80.4900,1.0,22.58,2 
ENP,ioos.station.NOAA.NDBC:DKKF1:1,2014-11-02T07:00:00Z,25.1800,-80.4900,1.0,22.16,2 
ENP,ioos.station.NOAA.NDBC:DKKF1:1,2014-11-02T09:00:00Z,25.1800,-80.4900,1.0,21.49,2 
ENP,ioos.station.NOAA.NDBC:DKKF1:1,2014-11-02T10:00:00Z,25.1800,-80.4900,1.0,21.2,2 
ENP,ioos.station.NOAA.NDBC:DKKF1:1,2014-11-02T11:00:00Z,25.1800,-80.4900,1.0,20.93,2 
ENP,ioos.station.NOAA.NDBC:DKKF1:1,2014-11-02T12:00:00Z,25.1800,-80.4900,1.0,20.6,11111222 
ENP,ioos.station.NOAA.NDBC:DKKF1:1,2014-11-02T13:00:00Z,25.1800,-80.4900,1.0,20.42,2 
ENP,ioos.station.NOAA.NDBC:DKKF1:1,2014-11-02T14:00:00Z,25.1800,-80.4900,1.0,20.36,2 
ENP,ioos.station.NOAA.NDBC:DKKF1:1,2014-11-02T15:00:00Z,25.1800,-80.4900,1.0,20.35,2 
ENP,ioos.station.NOAA.NDBC:DKKF1:1,2014-11-02T16:00:00Z,25.1800,-80.4900,1.0,20.39,2 
ENP,ioos.station.NOAA.NDBC:DKKF1:1,2014-11-02T17:00:00Z,25.1800,-80.4900,1.0,20.56,2 
ENP,ioos.station.NOAA.NDBC:DKKF1:1,2014-11-02T18:00:00Z,25.1800,-80.4900,1.0,20.77,2 
ENP,ioos.station.NOAA.NDBC:DKKF1:1,2014-11-02T19:00:00Z,25.1800,-80.4900,1.0,20.98,2 
ENP,ioos.station.NOAA.NDBC:DKKF1:1,2014-11-02T21:00:00Z,25.1800,-80.4900,1.0,21.1,2 
ENP,ioos.station.NOAA.NDBC:DKKF1:1,2014-11-02T22:00:00Z,25.1800,-80.4900,1.0,21.0,2 
ENP,ioos.station.NOAA.NDBC:DKKF1:1,2014-11-03T00:00:00Z,25.1800,-80.4900,1.0,20.77,2 
ENP,ioos.station.NOAA.NDBC:DKKF1:1,2014-11-03T01:00:00Z,25.1800,-80.4900,1.0,20.54,2 
ENP,ioos.station.NOAA.NDBC:DKKF1:1,2014-11-03T02:00:00Z,25.1800,-80.4900,1.0,20.44,2 
ENP,ioos.station.NOAA.NDBC:DKKF1:1,2014-11-03T03:00:00Z,25.1800,-80.4900,1.0,20.37,2 
ENP,ioos.station.NOAA.NDBC:DKKF1:1,2014-11-03T05:00:00Z,25.1800,-80.4900,1.0,20.05,2 
ENP,ioos.station.NOAA.NDBC:DKKF1:1,2014-11-03T06:00:00Z,25.1800,-80.4900,1.0,19.92,2 
ENP,ioos.station.NOAA.NDBC:DKKF1:1,2014-11-03T07:00:00Z,25.1800,-80.4900,1.0,19.8,11111222 
ENP,ioos.station.NOAA.NDBC:DKKF1:1,2014-11-03T08:00:00Z,25.1800,-80.4900,1.0,19.64,2 
ENP,ioos.station.NOAA.NDBC:DKKF1:1,2014-11-03T09:00:00Z,25.1800,-80.4900,1.0,19.5,11111222 
ENP,ioos.station.NOAA.NDBC:DKKF1:1,2014-11-03T10:00:00Z,25.1800,-80.4900,1.0,19.32,2 
ENP,ioos.station.NOAA.NDBC:DKKF1:1,2014-11-03T11:00:00Z,25.1800,-80.4900,1.0,19.15,2 
ENP,ioos.station.NOAA.NDBC:DKKF1:1,2014-11-03T12:00:00Z,25.1800,-80.4900,1.0,19.0,11111222 
ENP,ioos.station.NOAA.NDBC:DKKF1:1,2014-11-03T13:00:00Z,25.1800,-80.4900,1.0,18.91,2 
ENP,ioos.station.NOAA.NDBC:DKKF1:1,2014-11-03T14:00:00Z,25.1800,-80.4900,1.0,18.97,2 
ENP,ioos.station.NOAA.NDBC:DKKF1:1,2014-11-03T15:00:00Z,25.1800,-80.4900,1.0,19.09,2 
ENP,ioos.station.NOAA.NDBC:DKKF1:1,2014-11-03T16:00:00Z,25.1800,-80.4900,1.0,19.3,2 
ENP,ioos.station.NOAA.NDBC:DKKF1:1,2014-11-03T17:00:00Z,25.1800,-80.4900,1.0,19.38,2 
ENP,ioos.station.NOAA.NDBC:DKKF1:1,2014-11-03T18:00:00Z,25.1800,-80.4900,1.0,19.61,2 
ENP,ioos.station.NOAA.NDBC:DKKF1:1,2014-11-03T19:00:00Z,25.1800,-80.4900,1.0,19.85,2 
ENP,ioos.station.NOAA.NDBC:DKKF1:1,2014-11-03T21:00:00Z,25.1800,-80.4900,1.0,20.2,2 
ENP,ioos.station.NOAA.NDBC:DKKF1:1,2014-11-03T22:00:00Z,25.1800,-80.4900,1.0,20.18,2 
ENP,ioos.station.NOAA.NDBC:DKKF1:1,2014-11-03T23:00:00Z,25.1800,-80.4900,1.0,20.12,2 
ENP,ioos.station.NOAA.NDBC:DKKF1:1,2014-11-04T01:00:00Z,25.1800,-80.4900,1.0,20.04,2 
ENP,ioos.station.NOAA.NDBC:DKKF1:1,2014-11-04T02:00:00Z,25.1800,-80.4900,1.0,19.99,2 
ENP,ioos.station.NOAA.NDBC:DKKF1:1,2014-11-04T03:00:00Z,25.1800,-80.4900,1.0,19.96,2 
ENP,ioos.station.NOAA.NDBC:DKKF1:1,2014-11-04T04:00:00Z,25.1800,-80.4900,1.0,19.9,11111222 
ENP,ioos.station.NOAA.NDBC:DKKF1:1,2014-11-04T05:00:00Z,25.1800,-80.4900,1.0,19.82,2 
ENP,ioos.station.NOAA.NDBC:DKKF1:1,2014-11-04T06:00:00Z,25.1800,-80.4900,1.0,19.77,2 
ENP,ioos.station.NOAA.NDBC:DKKF1:1,2014-11-04T07:00:00Z,25.1800,-80.4900,1.0,19.8,11111222 
ENP,ioos.station.NOAA.NDBC:DKKF1:1,2014-11-04T08:00:00Z,25.1800,-80.4900,1.0,19.75,2 
ENP,ioos.station.NOAA.NDBC:DKKF1:1,2014-11-04T09:00:00Z,25.1800,-80.4900,1.0,19.7,2 
ENP,ioos.station.NOAA.NDBC:DKKF1:1,2014-11-04T10:00:00Z,25.1800,-80.4900,1.0,19.66,2 
ENP,ioos.station.NOAA.NDBC:DKKF1:1,2014-11-04T11:00:00Z,25.1800,-80.4900,1.0,19.63,2 
ENP,ioos.station.NOAA.NDBC:DKKF1:1,2014-11-04T12:00:00Z,25.1800,-80.4900,1.0,19.6,11111222 
ENP,ioos.station.NOAA.NDBC:DKKF1:1,2014-11-04T13:00:00Z,25.1800,-80.4900,1.0,19.64,2 
ENP,ioos.station.NOAA.NDBC:DKKF1:1,2014-11-04T14:00:00Z,25.1800,-80.4900,1.0,19.74,2 
ENP,ioos.station.NOAA.NDBC:DKKF1:1,2014-11-04T16:00:00Z,25.1800,-80.4900,1.0,20.09,2 
ENP,ioos.station.NOAA.NDBC:DKKF1:1,2014-11-04T17:00:00Z,25.1800,-80.4900,1.0,20.4,11111222 
ENP,ioos.station.NOAA.NDBC:DKKF1:1,2014-11-04T18:00:00Z,25.1800,-80.4900,1.0,20.71,2 
ENP,ioos.station.NOAA.NDBC:DKKF1:1,2014-11-04T19:00:00Z,25.1800,-80.4900,1.0,20.97,2 
ENP,ioos.station.NOAA.NDBC:DKKF1:1,2014-11-04T20:00:00Z,25.1800,-80.4900,1.0,21.2,11111222 
ENP,ioos.station.NOAA.NDBC:DKKF1:1,2014-11-04T21:00:00Z,25.1800,-80.4900,1.0,21.31,2 
ENP,ioos.station.NOAA.NDBC:DKKF1:1,2014-11-04T22:00:00Z,25.1800,-80.4900,1.0,21.34,2 
ENP,ioos.station.NOAA.NDBC:DKKF1:1,2014-11-04T23:00:00Z,25.1800,-80.4900,1.0,21.29,2 
ENP,ioos.station.NOAA.NDBC:DKKF1:1,2014-11-05T00:00:00Z,25.1800,-80.4900,1.0,21.2,11111222 
ENP,ioos.station.NOAA.NDBC:DKKF1:1,2014-11-05T01:00:00Z,25.1800,-80.4900,1.0,21.17,2 
ENP,ioos.station.NOAA.NDBC:DKKF1:1,2014-11-05T02:00:00Z,25.1800,-80.4900,1.0,21.12,2 
ENP,ioos.station.NOAA.NDBC:DKKF1:1,2014-11-05T03:00:00Z,25.1800,-80.4900,1.0,21.08,2 
ENP,ioos.station.NOAA.NDBC:DKKF1:1,2014-11-05T04:00:00Z,25.1800,-80.4900,1.0,21.0,11111222 
ENP,ioos.station.NOAA.NDBC:DKKF1:1,2014-11-05T05:00:00Z,25.1800,-80.4900,1.0,21.01,2 
ENP,ioos.station.NOAA.NDBC:DKKF1:1,2014-11-05T06:00:00Z,25.1800,-80.4900,1.0,20.98,2 
ENP,ioos.station.NOAA.NDBC:DKKF1:1,2014-11-05T07:00:00Z,25.1800,-80.4900,1.0,20.97,2 
ENP,ioos.station.NOAA.NDBC:DKKF1:1,2014-11-05T08:00:00Z,25.1800,-80.4900,1.0,20.9,11111222 
ENP,ioos.station.NOAA.NDBC:DKKF1:1,2014-11-05T09:00:00Z,25.1800,-80.4900,1.0,20.91,2 
ENP,ioos.station.NOAA.NDBC:DKKF1:1,2014-11-05T10:00:00Z,25.1800,-80.4900,1.0,20.87,2 
ENP,ioos.station.NOAA.NDBC:DKKF1:1,2014-11-05T11:00:00Z,25.1800,-80.4900,1.0,20.86,2 
ENP,ioos.station.NOAA.NDBC:DKKF1:1,2014-11-05T12:00:00Z,25.1800,-80.4900,1.0,20.8,11111222 
ENP,ioos.station.NOAA.NDBC:DKKF1:1,2014-11-05T13:00:00Z,25.1800,-80.4900,1.0,20.84,2 
ENP,ioos.station.NOAA.NDBC:DKKF1:1,2014-11-05T14:00:00Z,25.1800,-80.4900,1.0,20.94,2 
ENP,ioos.station.NOAA.NDBC:DKKF1:1,2014-11-05T15:00:00Z,25.1800,-80.4900,1.0,21.06,2 
ENP,ioos.station.NOAA.NDBC:DKKF1:1,2014-11-05T16:00:00Z,25.1800,-80.4900,1.0,21.26,2 
ENP,ioos.station.NOAA.NDBC:DKKF1:1,2014-11-05T17:00:00Z,25.1800,-80.4900,1.0,21.46,2 
ENP,ioos.station.NOAA.NDBC:DKKF1:1,2014-11-05T18:00:00Z,25.1800,-80.4900,1.0,21.6,11111222 
ENP,ioos.station.NOAA.NDBC:DKKF1:1,2014-11-05T19:00:00Z,25.1800,-80.4900,1.0,21.76,2 
ENP,ioos.station.NOAA.NDBC:DKKF1:1,2014-11-05T21:00:00Z,25.1800,-80.4900,1.0,22.11,2 
ENP,ioos.station.NOAA.NDBC:DKKF1:1,2014-11-05T22:00:00Z,25.1800,-80.4900,1.0,22.15,2 
ENP,ioos.station.NOAA.NDBC:DKKF1:1,2014-11-05T23:00:00Z,25.1800,-80.4900,1.0,22.16,2 
ENP,ioos.station.NOAA.NDBC:DKKF1:1,2014-11-06T00:00:00Z,25.1800,-80.4900,1.0,22.13,2 
ENP,ioos.station.NOAA.NDBC:DKKF1:1,2014-11-06T01:00:00Z,25.1800,-80.4900,1.0,22.08,2 
ENP,ioos.station.NOAA.NDBC:DKKF1:1,2014-11-06T02:00:00Z,25.1800,-80.4900,1.0,22.02,2 
ENP,ioos.station.NOAA.NDBC:DKKF1:1,2014-11-06T03:00:00Z,25.1800,-80.4900,1.0,22.02,2 
ENP,ioos.station.NOAA.NDBC:DKKF1:1,2014-11-06T04:00:00Z,25.1800,-80.4900,1.0,22.1,11111222 
ENP,ioos.station.NOAA.NDBC:DKKF1:1,2014-11-06T05:00:00Z,25.1800,-80.4900,1.0,22.06,2 
ENP,ioos.station.NOAA.NDBC:DKKF1:1,2014-11-06T06:00:00Z,25.1800,-80.4900,1.0,21.99,2 
ENP,ioos.station.NOAA.NDBC:DKKF1:1,2014-11-06T07:00:00Z,25.1800,-80.4900,1.0,22.07,2 
ENP,ioos.station.NOAA.NDBC:DKKF1:1,2014-11-06T08:00:00Z,25.1800,-80.4900,1.0,22.0,11111222 
ENP,ioos.station.NOAA.NDBC:DKKF1:1,2014-11-06T09:00:00Z,25.1800,-80.4900,1.0,22.02,2 
ENP,ioos.station.NOAA.NDBC:DKKF1:1,2014-11-06T10:00:00Z,25.1800,-80.4900,1.0,22.0,2 
ENP,ioos.station.NOAA.NDBC:DKKF1:1,2014-11-06T11:00:00Z,25.1800,-80.4900,1.0,21.99,2 
ENP,ioos.station.NOAA.NDBC:DKKF1:1,2014-11-06T12:00:00Z,25.1800,-80.4900,1.0,21.82,2 
ENP,ioos.station.NOAA.NDBC:DKKF1:1,2014-11-06T13:00:00Z,25.1800,-80.4900,1.0,21.74,2 
ENP,ioos.station.NOAA.NDBC:DKKF1:1,2014-11-06T14:00:00Z,25.1800,-80.4900,1.0,21.8,2 
ENP,ioos.station.NOAA.NDBC:DKKF1:1,2014-11-06T15:00:00Z,25.1800,-80.4900,1.0,21.92,2 
ENP,ioos.station.NOAA.NDBC:DKKF1:1,2014-11-06T16:00:00Z,25.1800,-80.4900,1.0,22.1,11111222 
ENP,ioos.station.NOAA.NDBC:DKKF1:1,2014-11-06T17:00:00Z,25.1800,-80.4900,1.0,22.28,2 
ENP,ioos.station.NOAA.NDBC:DKKF1:1,2014-11-06T18:00:00Z,25.1800,-80.4900,1.0,22.62,2 
ENP,ioos.station.NOAA.NDBC:DKKF1:1,2014-11-06T19:00:00Z,25.1800,-80.4900,1.0,22.95,2 
ENP,ioos.station.NOAA.NDBC:DKKF1:1,2014-11-06T20:00:00Z,25.1800,-80.4900,1.0,23.1,11111222 
ENP,ioos.station.NOAA.NDBC:DKKF1:1,2014-11-06T21:00:00Z,25.1800,-80.4900,1.0,23.19,2 
ENP,ioos.station.NOAA.NDBC:DKKF1:1,2014-11-06T22:00:00Z,25.1800,-80.4900,1.0,23.27,2 
ENP,ioos.station.NOAA.NDBC:DKKF1:1,2014-11-06T23:00:00Z,25.1800,-80.4900,1.0,23.26,2 
ENP,ioos.station.NOAA.NDBC:DKKF1:1,2014-11-07T00:00:00Z,25.1800,-80.4900,1.0,23.2,11111222 
ENP,ioos.station.NOAA.NDBC:DKKF1:1,2014-11-07T01:00:00Z,25.1800,-80.4900,1.0,23.24,2 
ENP,ioos.station.NOAA.NDBC:DKKF1:1,2014-11-07T02:00:00Z,25.1800,-80.4900,1.0,23.18,2 
ENP,ioos.station.NOAA.NDBC:DKKF1:1,2014-11-07T03:00:00Z,25.1800,-80.4900,1.0,23.13,2 
ENP,ioos.station.NOAA.NDBC:DKKF1:1,2014-11-07T05:00:00Z,25.1800,-80.4900,1.0,23.08,2 
ENP,ioos.station.NOAA.NDBC:DKKF1:1,2014-11-07T06:00:00Z,25.1800,-80.4900,1.0,23.13,2 
ENP,ioos.station.NOAA.NDBC:DKKF1:1,2014-11-07T07:00:00Z,25.1800,-80.4900,1.0,23.16,2 
ENP,ioos.station.NOAA.NDBC:DKKF1:1,2014-11-07T08:00:00Z,25.1800,-80.4900,1.0,23.1,11111222 
ENP,ioos.station.NOAA.NDBC:DKKF1:1,2014-11-07T09:00:00Z,25.1800,-80.4900,1.0,23.07,2 
ENP,ioos.station.NOAA.NDBC:DKKF1:1,2014-11-07T10:00:00Z,25.1800,-80.4900,1.0,22.98,2 
ENP,ioos.station.NOAA.NDBC:DKKF1:1,2014-11-07T11:00:00Z,25.1800,-80.4900,1.0,23.02,2 
ENP,ioos.station.NOAA.NDBC:DKKF1:1,2014-11-07T12:00:00Z,25.1800,-80.4900,1.0,23.07,2 
ENP,ioos.station.NOAA.NDBC:DKKF1:1,2014-11-07T13:00:00Z,25.1800,-80.4900,1.0,22.98,2 
ENP,ioos.station.NOAA.NDBC:DKKF1:1,2014-11-07T14:00:00Z,25.1800,-80.4900,1.0,22.96,2 
ENP,ioos.station.NOAA.NDBC:DKKF1:1,2014-11-07T15:00:00Z,25.1800,-80.4900,1.0,23.4,11111222 
ENP,ioos.station.NOAA.NDBC:DKKF1:1,2014-11-07T16:00:00Z,25.1800,-80.4900,1.0,23.7,2 
ENP,ioos.station.NOAA.NDBC:DKKF1:1,2014-11-07T17:00:00Z,25.1800,-80.4900,1.0,23.9,2 
ENP,ioos.station.NOAA.NDBC:DKKF1:1,2014-11-07T18:00:00Z,25.1800,-80.4900,1.0,23.89,2 
ENP,ioos.station.NOAA.NDBC:DKKF1:1,2014-11-07T19:00:00Z,25.1800,-80.4900,1.0,24.55,2 
ENP,ioos.station.NOAA.NDBC:DKKF1:1,2014-11-07T20:00:00Z,25.1800,-80.4900,1.0,24.7,11111222 
ENP,ioos.station.NOAA.NDBC:DKKF1:1,2014-11-07T21:00:00Z,25.1800,-80.4900,1.0,24.54,2 
ENP,ioos.station.NOAA.NDBC:DKKF1:1,2014-11-07T22:00:00Z,25.1800,-80.4900,1.0,24.61,2 
ENP,ioos.station.NOAA.NDBC:DKKF1:1,2014-11-07T23:00:00Z,25.1800,-80.4900,1.0,24.54,2 
ENP,ioos.station.NOAA.NDBC:DKKF1:1,2014-11-08T00:00:00Z,25.1800,-80.4900,1.0,24.5,11111222 
ENP,ioos.station.NOAA.NDBC:DKKF1:1,2014-11-08T01:00:00Z,25.1800,-80.4900,1.0,24.4,2 
ENP,ioos.station.NOAA.NDBC:DKKF1:1,2014-11-08T02:00:00Z,25.1800,-80.4900,1.0,24.28,2 
ENP,ioos.station.NOAA.NDBC:DKKF1:1,2014-11-08T03:00:00Z,25.1800,-80.4900,1.0,24.11,2 
ENP,ioos.station.NOAA.NDBC:DKKF1:1,2014-11-08T05:00:00Z,25.1800,-80.4900,1.0,23.93,2 
ENP,ioos.station.NOAA.NDBC:DKKF1:1,2014-11-08T07:00:00Z,25.1800,-80.4900,1.0,23.94,2 
ENP,ioos.station.NOAA.NDBC:DKKF1:1,2014-11-08T08:00:00Z,25.1800,-80.4900,1.0,24.0,11111222 
ENP,ioos.station.NOAA.NDBC:DKKF1:1,2014-11-08T09:00:00Z,25.1800,-80.4900,1.0,24.2,2 
ENP,ioos.station.NOAA.NDBC:DKKF1:1,2014-11-08T10:00:00Z,25.1800,-80.4900,1.0,24.22,2 
ENP,ioos.station.NOAA.NDBC:DKKF1:1,2014-11-08T11:00:00Z,25.1800,-80.4900,1.0,24.15,2 
ENP,ioos.station.NOAA.NDBC:DKKF1:1,2014-11-08T12:00:00Z,25.1800,-80.4900,1.0,24.19,2 
ENP,ioos.station.NOAA.NDBC:DKKF1:1,2014-11-08T13:00:00Z,25.1800,-80.4900,1.0,24.23,2 
ENP,ioos.station.NOAA.NDBC:DKKF1:1,2014-11-08T14:00:00Z,25.1800,-80.4900,1.0,24.27,2 
ENP,ioos.station.NOAA.NDBC:DKKF1:1,2014-11-08T16:00:00Z,25.1800,-80.4900,1.0,24.54,2 
ENP,ioos.station.NOAA.NDBC:DKKF1:1,2014-11-08T17:00:00Z,25.1800,-80.4900,1.0,24.73,2 
ENP,ioos.station.NOAA.NDBC:DKKF1:1,2014-11-08T19:00:00Z,25.1800,-80.4900,1.0,25.34,2 
ENP,ioos.station.NOAA.NDBC:DKKF1:1,2014-11-08T20:00:00Z,25.1800,-80.4900,1.0,25.26,2 
ENP,ioos.station.NOAA.NDBC:DKKF1:1,2014-11-08T21:00:00Z,25.1800,-80.4900,1.0,25.45,2 
ENP,ioos.station.NOAA.NDBC:DKKF1:1,2014-11-08T22:00:00Z,25.1800,-80.4900,1.0,25.36,2 
ENP,ioos.station.NOAA.NDBC:DKKF1:1,2014-11-08T23:00:00Z,25.1800,-80.4900,1.0,25.4,11111222 
ENP,ioos.station.NOAA.NDBC:DKKF1:1,2014-11-09T00:00:00Z,25.1800,-80.4900,1.0,25.27,2 
ENP,ioos.station.NOAA.NDBC:DKKF1:1,2014-11-09T01:00:00Z,25.1800,-80.4900,1.0,25.15,2 
ENP,ioos.station.NOAA.NDBC:DKKF1:1,2014-11-09T02:00:00Z,25.1800,-80.4900,1.0,25.14,2 
ENP,ioos.station.NOAA.NDBC:DKKF1:1,2014-11-09T03:00:00Z,25.1800,-80.4900,1.0,25.16,2 
ENP,ioos.station.NOAA.NDBC:DKKF1:1,2014-11-09T04:00:00Z,25.1800,-80.4900,1.0,25.2,11111222 
ENP,ioos.station.NOAA.NDBC:DKKF1:1,2014-11-09T05:00:00Z,25.1800,-80.4900,1.0,25.11,2 
ENP,ioos.station.NOAA.NDBC:DKKF1:1,2014-11-09T06:00:00Z,25.1800,-80.4900,1.0,25.07,2 
ENP,ioos.station.NOAA.NDBC:DKKF1:1,2014-11-09T07:00:00Z,25.1800,-80.4900,1.0,25.03,2 
ENP,ioos.station.NOAA.NDBC:DKKF1:1,2014-11-09T08:00:00Z,25.1800,-80.4900,1.0,25.0,11111222 
ENP,ioos.station.NOAA.NDBC:DKKF1:1,2014-11-09T09:00:00Z,25.1800,-80.4900,1.0,24.95,2 
ENP,ioos.station.NOAA.NDBC:DKKF1:1,2014-11-09T10:00:00Z,25.1800,-80.4900,1.0,24.9,2 
ENP,ioos.station.NOAA.NDBC:DKKF1:1,2014-11-09T11:00:00Z,25.1800,-80.4900,1.0,24.7,2 
ENP,ioos.station.NOAA.NDBC:DKKF1:1,2014-11-09T14:00:00Z,25.1800,-80.4900,1.0,24.49,2 
ENP,ioos.station.NOAA.NDBC:DKKF1:1,2014-11-09T15:00:00Z,25.1800,-80.4900,1.0,24.65,2 
ENP,ioos.station.NOAA.NDBC:DKKF1:1,2014-11-09T17:00:00Z,25.1800,-80.4900,1.0,24.99,2 
ENP,ioos.station.NOAA.NDBC:DKKF1:1,2014-11-09T18:00:00Z,25.1800,-80.4900,1.0,25.09,2 
ENP,ioos.station.NOAA.NDBC:DKKF1:1,2014-11-09T19:00:00Z,25.1800,-80.4900,1.0,25.03,2 
ENP,ioos.station.NOAA.NDBC:DKKF1:1,2014-11-09T20:00:00Z,25.1800,-80.4900,1.0,25.05,2 
ENP,ioos.station.NOAA.NDBC:DKKF1:1,2014-11-09T21:00:00Z,25.1800,-80.4900,1.0,25.07,2 
ENP,ioos.station.NOAA.NDBC:DKKF1:1,2014-11-09T22:00:00Z,25.1800,-80.4900,1.0,24.96,2 
ENP,ioos.station.NOAA.NDBC:DKKF1:1,2014-11-09T23:00:00Z,25.1800,-80.4900,1.0,24.8,11111222 
ENP,ioos.station.NOAA.NDBC:DKKF1:1,2014-11-10T00:00:00Z,25.1800,-80.4900,1.0,24.76,2 
ENP,ioos.station.NOAA.NDBC:DKKF1:1,2014-11-10T01:00:00Z,25.1800,-80.4900,1.0,24.7,2 
ENP,ioos.station.NOAA.NDBC:DKKF1:1,2014-11-10T02:00:00Z,25.1800,-80.4900,1.0,24.6,2 
ENP,ioos.station.NOAA.NDBC:DKKF1:1,2014-11-10T03:00:00Z,25.1800,-80.4900,1.0,24.5,2 
ENP,ioos.station.NOAA.NDBC:DKKF1:1,2014-11-10T04:00:00Z,25.1800,-80.4900,1.0,24.41,2 
ENP,ioos.station.NOAA.NDBC:DKKF1:1,2014-11-10T05:00:00Z,25.1800,-80.4900,1.0,24.3,11111222 
ENP,ioos.station.NOAA.NDBC:DKKF1:1,2014-11-10T06:00:00Z,25.1800,-80.4900,1.0,24.25,2 
ENP,ioos.station.NOAA.NDBC:DKKF1:1,2014-11-10T07:00:00Z,25.1800,-80.4900,1.0,24.1,11111222 
ENP,ioos.station.NOAA.NDBC:DKKF1:1,2014-11-10T08:00:00Z,25.1800,-80.4900,1.0,24.05,2 
ENP,ioos.station.NOAA.NDBC:DKKF1:1,2014-11-10T09:00:00Z,25.1800,-80.4900,1.0,23.84,2 
ENP,ioos.station.NOAA.NDBC:DKKF1:1,2014-11-10T10:00:00Z,25.1800,-80.4900,1.0,23.8,2 
ENP,ioos.station.NOAA.NDBC:DKKF1:1,2014-11-10T11:00:00Z,25.1800,-80.4900,1.0,23.66,2 
ENP,ioos.station.NOAA.NDBC:DKKF1:1,2014-11-10T12:00:00Z,25.1800,-80.4900,1.0,23.59,2 
ENP,ioos.station.NOAA.NDBC:DKKF1:1,2014-11-10T13:00:00Z,25.1800,-80.4900,1.0,23.58,2 
ENP,ioos.station.NOAA.NDBC:DKKF1:1,2014-11-10T14:00:00Z,25.1800,-80.4900,1.0,23.43,2 
ENP,ioos.station.NOAA.NDBC:DKKF1:1,2014-11-10T15:00:00Z,25.1800,-80.4900,1.0,23.6,11111222 
ENP,ioos.station.NOAA.NDBC:DKKF1:1,2014-11-10T16:00:00Z,25.1800,-80.4900,1.0,23.76,2 
ENP,ioos.station.NOAA.NDBC:DKKF1:1,2014-11-10T17:00:00Z,25.1800,-80.4900,1.0,23.86,2 
ENP,ioos.station.NOAA.NDBC:DKKF1:1,2014-11-10T18:00:00Z,25.1800,-80.4900,1.0,24.05,2 
ENP,ioos.station.NOAA.NDBC:DKKF1:1,2014-11-10T19:00:00Z,25.1800,-80.4900,1.0,24.4,11111222 
ENP,ioos.station.NOAA.NDBC:DKKF1:1,2014-11-10T20:00:00Z,25.1800,-80.4900,1.0,24.54,2 
ENP,ioos.station.NOAA.NDBC:DKKF1:1,2014-11-10T21:00:00Z,25.1800,-80.4900,1.0,24.59,2 
ENP,ioos.station.NOAA.NDBC:DKKF1:1,2014-11-10T22:00:00Z,25.1800,-80.4900,1.0,24.57,2 
ENP,ioos.station.NOAA.NDBC:DKKF1:1,2014-11-10T23:00:00Z,25.1800,-80.4900,1.0,24.38,2 
ENP,ioos.station.NOAA.NDBC:DKKF1:1,2014-11-11T00:00:00Z,25.1800,-80.4900,1.0,24.3,11111222 
ENP,ioos.station.NOAA.NDBC:DKKF1:1,2014-11-11T01:00:00Z,25.1800,-80.4900,1.0,24.15,2 
ENP,ioos.station.NOAA.NDBC:DKKF1:1,2014-11-11T02:00:00Z,25.1800,-80.4900,1.0,23.99,2 
ENP,ioos.station.NOAA.NDBC:DKKF1:1,2014-11-11T03:00:00Z,25.1800,-80.4900,1.0,23.96,2 
ENP,ioos.station.NOAA.NDBC:DKKF1:1,2014-11-11T05:00:00Z,25.1800,-80.4900,1.0,23.71,2 
ENP,ioos.station.NOAA.NDBC:DKKF1:1,2014-11-11T06:00:00Z,25.1800,-80.4900,1.0,23.63,2 
ENP,ioos.station.NOAA.NDBC:DKKF1:1,2014-11-11T07:00:00Z,25.1800,-80.4900,1.0,23.68,2 
ENP,ioos.station.NOAA.NDBC:DKKF1:1,2014-11-11T08:00:00Z,25.1800,-80.4900,1.0,23.5,11111222 
ENP,ioos.station.NOAA.NDBC:DKKF1:1,2014-11-11T09:00:00Z,25.1800,-80.4900,1.0,23.3,2 
ENP,ioos.station.NOAA.NDBC:DKKF1:1,2014-11-11T10:00:00Z,25.1800,-80.4900,1.0,23.31,2 
ENP,ioos.station.NOAA.NDBC:DKKF1:1,2014-11-11T11:00:00Z,25.1800,-80.4900,1.0,23.24,2 
ENP,ioos.station.NOAA.NDBC:DKKF1:1,2014-11-11T13:00:00Z,25.1800,-80.4900,1.0,23.07,2 
ENP,ioos.station.NOAA.NDBC:DKKF1:1,2014-11-11T14:00:00Z,25.1800,-80.4900,1.0,23.11,2 
ENP,ioos.station.NOAA.NDBC:DKKF1:1,2014-11-11T15:00:00Z,25.1800,-80.4900,1.0,23.29,2 
ENP,ioos.station.NOAA.NDBC:DKKF1:1,2014-11-11T16:00:00Z,25.1800,-80.4900,1.0,23.43,2 
ENP,ioos.station.NOAA.NDBC:DKKF1:1,2014-11-11T17:00:00Z,25.1800,-80.4900,1.0,23.68,2 
ENP,ioos.station.NOAA.NDBC:DKKF1:1,2014-11-11T18:00:00Z,25.1800,-80.4900,1.0,24.05,2 
ENP,ioos.station.NOAA.NDBC:DKKF1:1,2014-11-11T19:00:00Z,25.1800,-80.4900,1.0,24.31,2 
ENP,ioos.station.NOAA.NDBC:DKKF1:1,2014-11-11T20:00:00Z,25.1800,-80.4900,1.0,24.31,2 
ENP,ioos.station.NOAA.NDBC:DKKF1:1,2014-11-11T21:00:00Z,25.1800,-80.4900,1.0,24.11,2 
ENP,ioos.station.NOAA.NDBC:DKKF1:1,2014-11-11T22:00:00Z,25.1800,-80.4900,1.0,24.04,2 
ENP,ioos.station.NOAA.NDBC:DKKF1:1,2014-11-11T23:00:00Z,25.1800,-80.4900,1.0,24.04,2 
ENP,ioos.station.NOAA.NDBC:DKKF1:1,2014-11-12T00:00:00Z,25.1800,-80.4900,1.0,23.9,11111222 
ENP,ioos.station.NOAA.NDBC:DKKF1:1,2014-11-12T01:00:00Z,25.1800,-80.4900,1.0,23.7,11111222 
ENP,ioos.station.NOAA.NDBC:DKKF1:1,2014-11-12T02:00:00Z,25.1800,-80.4900,1.0,23.7,11111222 
ENP,ioos.station.NOAA.NDBC:DKKF1:1,2014-11-12T03:00:00Z,25.1800,-80.4900,1.0,23.6,11111222 
ENP,ioos.station.NOAA.NDBC:DKKF1:1,2014-11-12T04:00:00Z,25.1800,-80.4900,1.0,23.5,11111222 
ENP,ioos.station.NOAA.NDBC:DKKF1:1,2014-11-12T05:00:00Z,25.1800,-80.4900,1.0,22.9,11111222 
ENP,ioos.station.NOAA.NDBC:DKKF1:1,2014-11-12T06:00:00Z,25.1800,-80.4900,1.0,23.0,11111222 
ENP,ioos.station.NOAA.NDBC:DKKF1:1,2014-11-12T07:00:00Z,25.1800,-80.4900,1.0,23.0,11111222 
ENP,ioos.station.NOAA.NDBC:DKKF1:1,2014-11-12T08:00:00Z,25.1800,-80.4900,1.0,22.8,11111222 
ENP,ioos.station.NOAA.NDBC:DKKF1:1,2014-11-12T09:00:00Z,25.1800,-80.4900,1.0,22.5,11111222 
ENP,ioos.station.NOAA.NDBC:DKKF1:1,2014-11-12T10:00:00Z,25.1800,-80.4900,1.0,22.3,11111222 
ENP,ioos.station.NOAA.NDBC:DKKF1:1,2014-11-12T11:00:00Z,25.1800,-80.4900,1.0,22.2,11111222 
ENP,ioos.station.NOAA.NDBC:DKKF1:1,2014-11-12T12:00:00Z,25.1800,-80.4900,1.0,22.0,11111222 
ENP,ioos.station.NOAA.NDBC:DKKF1:1,2014-11-12T17:00:00Z,25.1800,-80.4900,1.0,23.1,11111222 
ENP,ioos.station.NOAA.NDBC:DKKF1:1,2014-11-12T18:00:00Z,25.1800,-80.4900,1.0,23.5,11111222 
ENP,ioos.station.NOAA.NDBC:DKKF1:1,2014-11-12T19:00:00Z,25.1800,-80.4900,1.0,24.1,11111222 
ENP,ioos.station.NOAA.NDBC:DKKF1:1,2014-11-12T20:00:00Z,25.1800,-80.4900,1.0,23.89,2 
ENP,ioos.station.NOAA.NDBC:DKKF1:1,2014-11-12T21:00:00Z,25.1800,-80.4900,1.0,23.92,2 
ENP,ioos.station.NOAA.NDBC:DKKF1:1,2014-11-12T22:00:00Z,25.1800,-80.4900,1.0,23.88,2 
ENP,ioos.station.NOAA.NDBC:DKKF1:1,2014-11-12T23:00:00Z,25.1800,-80.4900,1.0,23.6,11111222 
ENP,ioos.station.NOAA.NDBC:DKKF1:1,2014-11-13T00:00:00Z,25.1800,-80.4900,1.0,23.61,2 
ENP,ioos.station.NOAA.NDBC:DKKF1:1,2014-11-13T01:00:00Z,25.1800,-80.4900,1.0,23.56,2 
ENP,ioos.station.NOAA.NDBC:DKKF1:1,2014-11-13T02:00:00Z,25.1800,-80.4900,1.0,23.54,2 
ENP,ioos.station.NOAA.NDBC:DKKF1:1,2014-11-13T03:00:00Z,25.1800,-80.4900,1.0,23.51,2 
ENP,ioos.station.NOAA.NDBC:DKKF1:1,2014-11-13T04:00:00Z,25.1800,-80.4900,1.0,23.4,11111222 
ENP,ioos.station.NOAA.NDBC:DKKF1:1,2014-11-13T05:00:00Z,25.1800,-80.4900,1.0,23.41,2 
ENP,ioos.station.NOAA.NDBC:DKKF1:1,2014-11-13T06:00:00Z,25.1800,-80.4900,1.0,23.55,2 
ENP,ioos.station.NOAA.NDBC:DKKF1:1,2014-11-13T07:00:00Z,25.1800,-80.4900,1.0,23.5,2 
ENP,ioos.station.NOAA.NDBC:DKKF1:1,2014-11-13T08:00:00Z,25.1800,-80.4900,1.0,23.39,2 
ENP,ioos.station.NOAA.NDBC:DKKF1:1,2014-11-13T09:00:00Z,25.1800,-80.4900,1.0,23.33,2 
ENP,ioos.station.NOAA.NDBC:DKKF1:1,2014-11-13T10:00:00Z,25.1800,-80.4900,1.0,23.34,2 
ENP,ioos.station.NOAA.NDBC:DKKF1:1,2014-11-13T11:00:00Z,25.1800,-80.4900,1.0,23.33,2 
ENP,ioos.station.NOAA.NDBC:DKKF1:1,2014-11-13T12:00:00Z,25.1800,-80.4900,1.0,23.21,2 